Terminal Aerodrome Forecast
Issued by NWS Columbia, SC

Home | Current Version | Previous Version | Text Only | Print | Product List | Glossary On
Versions: 1 2 3 4 5 6 7 8 9 10 11 12 13 14 15 16 17 18 19 20 21 22 23 24 25 26 27 28 29 30 31 32 33 34 35 36 37 38 39
000
FTAK31 PAJN 251100
TAFAGS
TAF
PAGS 251132Z 2512/2612 13010KT P6SM VCSH BKN035 OVC050
     FM251700 09004KT 6SM -RA BR BKN025 OVC035
     FM252200 10007KT P6SM -RA SCT020 BKN040 OVC060
     FM260500 14006KT 4SM -RA BR BKN025 OVC040
      AMD NOT SKED=

USA.gov is the U.S. government's official web portal to all federal, state and local government web resources and services.